Погода в Авадане

Россия / Республика Дагестан     41°56′04″N   48°20′20″E
темп.,
°C
ветер,
м/с
пор.,
м/с
влажн.,
%
обл.,
%
осадки,
мм/ч
давл.,
гПа
погр.,
м
16 сентября, чт
чт1600:00+20зсз11550 0.0 101228
03:00+19ссв11600 0.0 101146
06:00+19сз11620 0.0 101143
09:00+24св11380 0.0 1009533
12:00+26св32350 0.0 1008873
15:00+25с66410 0.0 1008859
18:00+23ссз68510 0.0 1009276
21:00+21сз57600 0.0 1012240
17 сентября, пт
пт1700:00+20сз46620 0.0 1013160
03:00+19сз34570 0.0 1014109
06:00+19сз34580 0.0 1015113
09:00+22с43550 0.0 10151012
12:00+23св43515 0.0 10141081
15:00+22св435513 0.0 10141040
18:00+20ссв336389 0.0 1015521
21:00+19с336498 0.0 1016753
18 сентября, сб
сб1800:00+19с336794 0.0 1016850
03:00+18с226986 0.0 1015664
06:00+18с226992 0.0 1016687
09:00+19ссв226573 0.0 1016851
12:00+20ссв436194 0.0 1016911
15:00+20ссв3361100 0.0 1016912
18:00+18ссв2368100 0.0 1017260
21:00+18с117026 0.0 1018164
19 сентября, вс
вс1900:00+17ссв00735 0.0 1017137
03:00+16ююз00770 0.0 1017126
06:00+16зюз11760 0.0 101784
09:00+21вюв235386 0.0 1017803
12:00+22в444749 0.0 10161034
15:00+22в4348100 0.0 1015948
18:00+19юв226122 0.0 1016143
21:00+18юз1167100 0.0 101653
20 сентября, пн
пн2000:00+18з1165100 0.0 101536
03:00+18юз016667 0.0 101340
06:00+19всв0063100 0.1 101354
09:00+22вюв1151100 0.1 1013473
12:00+24в32465 0.0 1012874
15:00+24всв32604 0.1 1011666
18:00+21вюв22792 0.3 101290
21:00+20ююз11890 0.3 101339